Regional Weather Roundup
Issued by NWS Newport/Morehead, NC

Current Version | Previous Version | Graphics & Text | Print | Product List | Glossary On
Versions: 1 2 3 4 5 6 7 8 9 10 11 12 13 14 15 16 17 18 19 20 21 22 23 24 25 26 27 28 29 30 31 32 33 34 35 36 37 38 39 40 41 42 43 44 45 46 47 48 49 50
000 ASUS42 KMHX 311413 RWRMHX WEATHER ROUNDUP FOR EASTERN NORTH CAROLINA NATIONAL WEATHER SERVICE NEWPORT/MOREHEAD CITY NC 1000 AM EDT FRI JUL 31 2015 NOTE: "FAIR" INDICATES FEW OR NO CLOUDS BELOW 12,000 FEET WITH NO SIGNIFICANT WEATHER AND/OR OBSTRUCTIONS TO VISIBILITY NCZ015>017-031-032-045>047-102-103-311500- NORTH COAST CITY SKY/WX TMP DP RH WIND PRES REMARKS EDENTON N/A 80 71 74 N7 29.92S ELIZABETH CITY MOSUNNY 82 74 76 N12 29.92R KITTY HAWK MOSUNNY 84 75 74 NE6 29.89S MANTEO PTSUNNY 83 77 81 NE9 29.90S $$ NCZ045>047-081-094-103-104-311500- CENTRAL COAST CITY SKY/WX TMP DP RH WIND PRES REMARKS FRISCO PTSUNNY 84 77 79 VRB7G16 29.88F SWANQUARTER N/A 84 N/A N/A NW3 29.85S $$ NCZ095-097-098-100-101-311500- SOUTHERN COAST CITY SKY/WX TMP DP RH WIND PRES REMARKS BEAUFORT MOSUNNY 85 77 77 NW12 29.89F CEDAR ISLAND N/A 84 N/A N/A NW9 29.91F JACKSONVILLE CLOUDY 83 75 77 N8 29.90F PINEY ISLAND MOSUNNY N/A N/A N/A MISG 29.88F WILMINGTON SUNNY 84 75 74 N8 29.90F $$ NCZ011>013-027>030-043-044-078>080-089-090>093-098-311500- COASTAL PLAIN CITY SKY/WX TMP DP RH WIND PRES REMARKS AHOSKIE SUNNY 80 69 70 NE8 29.95S CLINTON SUNNY 85 71 62 NE6G17 29.94S ELIZABETHTOWN MOSUNNY 85 71 64 N3 29.93S GOLDSBORO SUNNY 84 70 63 N13 29.92S GREENVILLE MOSUNNY 82 73 74 N12 29.95S HAVELOCK PTSUNNY 84 76 76 N9 29.90F KENANSVILLE SUNNY N/A N/A N/A N8G16 29.94S KINSTON SUNNY 84 70 61 N13 29.94S NEW BERN PTSUNNY 83 76 79 N8 29.92S RICHLANDS CLOUDY 81 72 74 N9 29.92F ROCKY MOUNT SUNNY 84 68 58 N16 29.95F WASHINGTON MOSUNNY 81 74 80 N5 29.93S WHITEVILLE MOSUNNY 81 73 76 N3 29.92F $$ AMZ130-135-150-152-154-156-158-170-250-252-270-ANZ085-086-088-633-658-670-311500- MARINE OBSERVATIONS STATION/POSITION TIME TEMP WIND PRES WAVE SWELL AIR SEA DIR/SP/G HT/PER HT/PER (UTC) (F) (DEG/KT/KT) (MB) (FT/S) (FT/S) CHESAPEAKE LIGHT 1400 80 10/ 13/ 14 1013.7 64 E VA BEACH 1350 79 81 360/ 12/ 14 1011.8 4/ 7 3/ 7 DUCK 1300 74 63 30/ 11/ 12 1011.7 2 E DUCK 1311 71 N/A 3/ 6 OREGON INLET 1300 81 83 350/ 7/ 10 1012.3 13E OREGON INLT 1300 81 N/A 3/ 8 HATTERAS CG 1300 81 82 340/ 12/ 13 1011.9 DIAMOND BUOY 1350 82 86 20/ 12/ 14 1011.4 4/ 9 3/ 9 CAPE LOOKOUT 1400 83 310/ 5/ 7 1011.6 BEAUFORT LAB 1300 83 82 340/ 7/ 10 1011.9 30 SE NEW RVR IN NOT AVBL 27 SE WRIGHTSVLE 1300 79 82 330/ 6/ 6 N/A 5 SE WRIGHTSVLE 1308 81 83 330/ 8/ 10 1012.9 225 S CAPE HAT 1350 83 81 220/ 21/ 25 1014.5 9/ 8 41 SE CHARLESTON 1350 78 84 250/ 19/ 25 1013.4 4/ 5 2/ 8 $$

USA.gov is the U.S. government's official web portal to all federal, state and local government web resources and services.